[TLELIST] Archives

 

[list_settings.list_name] Current TLEs

March 5th 2012 PST

HST 1 20580U 90037B 12062.23938345 +.00001896 +00000-0 +12794-3 0 09543 2 20580 028.4701 123.2743 0003167 005.6126 354.4532 15.02228473998633 ISS (ZARYA) 1 25544U 98067A 12063.87873843 +.00000869 +00000-0 +17673-4 0 01263 2 25544 051.6403 290.1492 0018025 117.6364 070.3487 15.58714737761597 CXO 1 25867U 99040B 12063.16666667 -.00000052 +00000-0 +00000-0 0 07082 2 25867 071.5467 012.6781 8743659 277.8894 001.6159 00.37803054008754 ____________________________________________________________________ These 2-Line ...Continue Reading

[list_settings.list_name] Current TLEs

March 4th 2012 PST

HST 1 20580U 90037B 12062.23938345 +.00001896 +00000-0 +12794-3 0 09543 2 20580 028.4701 123.2743 0003167 005.6126 354.4532 15.02228473998633 ISS (ZARYA) 1 25544U 98067A 12062.91488426 +.00013143 +00000-0 +17263-3 0 01203 2 25544 051.6429 294.9853 0018021 113.4041 062.4407 15.58702175761441 CXO 1 25867U 99040B 12063.16666667 -.00000052 +00000-0 +00000-0 0 07082 2 25867 071.5467 012.6781 8743659 277.8894 001.6159 00.37803054008754 ____________________________________________________________________ These 2-Line ...Continue Reading

[list_settings.list_name] Current TLEs

March 3rd 2012 PST

HST 1 20580U 90037B 12061.24282834 .00001756 00000-0 11752-3 0 9535 2 20580 028.4698 129.7927 0003125 355.7915 004.2744 15.02224665998489 ISS (ZARYA) 1 25544U 98067A 12061.95745370 +.00008004 +00000-0 +10795-3 0 01146 2 25544 051.6419 299.7906 0017939 109.5452 090.3050 15.58668471761298 CXO 1 25867U 99040B 12063.16666667 -.00000052 +00000-0 +00000-0 0 07082 2 25867 071.5467 012.6781 8743659 277.8894 001.6159 00.37803054008754 ____________________________________________________________________ These 2-Line ...Continue Reading

[list_settings.list_name] Current TLEs

March 2nd 2012 PST

HST 1 20580U 90037B 12061.24282834 .00001756 00000-0 11752-3 0 9535 2 20580 028.4698 129.7927 0003125 355.7915 004.2744 15.02224665998489 ISS (ZARYA) 1 25544U 98067A 12 61.60134719 .00019589 00000-0 24753-3 0 1124 2 25544 051.6415 301.5814 0017720 106.9991 253.3471 15.58676725165344 CXO 1 25867U 99040B 12060.50000000 -.00000267 +00000-0 +00000-0 0 07088 2 25867 071.5276 012.8921 8741965 277.8896 358.5254 00.37799182008745 ____________________________________________________________________ These 2-Line ...Continue Reading

[list_settings.list_name] Current TLEs

March 1st 2012 PST

HST 1 20580U 90037B 12061.24282834 .00001756 00000-0 11752-3 0 9535 2 20580 028.4698 129.7927 0003125 355.7915 004.2744 15.02224665998489 ISS (ZARYA) 1 25544U 98067A 12061.48369057 .00032523 00000-0 41663-3 0 1093 2 25544 051.6436 302.1683 0017919 107.3453 312.3860 15.58688840761224 CXO 1 25867U 99040B 12060.50000000 -.00000267 +00000-0 +00000-0 0 07088 2 25867 071.5276 012.8921 8741965 277.8896 358.5254 00.37799182008745 ____________________________________________________________________ These 2-Line ...Continue Reading

[list_settings.list_name] Current TLEs

February 29th 2012 PST

HST 1 20580U 90037B 12059.91408266 .00001522 00000-0 10024-3 0 9526 2 20580 028.4696 138.4828 0003077 340.7439 019.3100 15.02219421998280 ISS (ZARYA) 1 25544U 98067A 12060.37913194 .00014320 00000-0 18234-3 0 1001 2 25544 051.6434 307.7106 0020547 098.2391 239.3868 15.59384757761040 CXO 1 25867U 99040B 12060.50000000 -.00000267 00000-0 00000+0 0 7076 2 25867 071.5276 012.8921 8741964 277.8896 358.5254 00.37799182 8744 ____________________________________________________________________ These 2-Line ...Continue Reading

[list_settings.list_name] Current TLEs

February 28th 2012 PST

HST 1 20580U 90037B 12057.05726606 .00001516 00000-0 99827-4 0 9511 2 20580 028.4698 157.1677 0002957 308.4336 051.5983 15.02211418997852 ISS (ZARYA) 1 25544U 98067A 12059.13045701 .00014167 00000-0 18072-3 0 955 2 25544 051.6428 313.9844 0020529 093.6886 069.5557 15.59346801760853 CXO 1 25867U 99040B 12060.50000000 -.00000267 00000-0 00000+0 0 7076 2 25867 071.5276 012.8921 8741964 277.8896 358.5254 00.37799182 8744 ____________________________________________________________________ These 2-Line ...Continue Reading

[list_settings.list_name] Current TLEs

February 27th 2012 PST

HST 1 20580U 90037B 12057.05726606 .00001516 00000-0 99827-4 0 9511 2 20580 028.4698 157.1677 0002957 308.4336 051.5983 15.02211418997852 ISS (ZARYA) 1 25544U 98067A 12058.10108177 .00014689 00000-0 18732-3 0 905 2 25544 051.6431 319.1559 0020586 090.1737 050.7349 15.59318864760699 CXO 1 25867U 99040B 12057.87500000 -.00000396 00000-0 00000+0 0 7069 2 25867 071.5141 013.0528 8742731 277.9125 001.1100 00.37800276 8737 ____________________________________________________________________ These 2-Line ...Continue Reading

[list_settings.list_name] Current TLEs

February 26th 2012 PST

HST 1 20580U 90037B 12057.05726606 .00001516 00000-0 99827-4 0 9511 2 20580 028.4698 157.1677 0002957 308.4336 051.5983 15.02211418997852 ISS (ZARYA) 1 25544U 98067A 12057.49961806 .00016386 00000-0 20827-3 0 861 2 25544 051.6430 322.1808 0020486 087.0616 275.2788 15.59305158760603 CXO 1 25867U 99040B 12057.87500000 -.00000396 00000-0 00000+0 0 7069 2 25867 071.5141 013.0528 8742731 277.9125 001.1100 00.37800276 8737 ____________________________________________________________________ These 2-Line ...Continue Reading

[list_settings.list_name] Current TLEs

February 25th 2012 PST

HST 1 20580U 90037B 12055.99426083 .00001412 00000-0 92096-4 0 9503 2 20580 028.4692 164.1213 0002988 296.0269 063.9985 15.02208872997692 ISS (ZARYA) 1 25544U 98067A 12056.24194027 .00014608 00000-0 18673-3 0 788 2 25544 051.6433 328.4976 0020538 082.9255 054.8404 15.59262387760402 CXO 1 25867U 99040B 12057.87500000 -.00000396 00000-0 00000+0 0 7069 2 25867 071.5141 013.0528 8742731 277.9125 001.1100 00.37800276 8737 ____________________________________________________________________ These 2-Line ...Continue Reading
  • This mailing list is a public mailing list - anyone may join or leave, at any time.
  • This mailing list is announce-only.

International Space Station (ISS) / Hubble Space Telescope (HST) / Chandra X-Ray Observatory Orbital Data via EMAIL

Privacy Policy:

Private list